Terug naar catalogus

EUTE 8 WEST C

HB 6

ActiefCommunicatieGEO
NORAD 27499·PAYLOAD·🇪🇺 EU

Gelanceerd Aug 21, 2002 vanaf Cape Canaveral Space Force Station

Loading…

TLE

VersSource: Space-Track

Epoch: Sep 14, 2026, 10:46 UTC

1 27499U 02038A   26257.44928461 -.00000013  00000-0  00000-0 0  9999
2 27499   8.7792  61.6186 0002088 166.8944  11.1230  0.99319331 51822

Volg EUTE 8 WEST C in realtime met AllMySat

Download on the App Store